Location: Luz Observatory
(34.5000°N, 117.2833°W)
Time: 11:25:06
(UTC-07:00)

Cosmos 1484 Rocket - Visible Passes

Search period start: 28 July 2014 00:00
Search period end: 07 August 2014 00:00
Orbit: 515 x 575 km, 97.4° (Epoch: 27 July)

Date Brightness Start Highest point End Pass type
(mag) Time Alt. Az. Time Alt. Az. Time Alt. Az.
28 Jul 3.8 20:39:14 10° S 20:43:08 49° W 20:47:00 10° NNW visible
29 Jul 3.5 20:33:25 10° S 20:37:23 59° W 20:41:19 10° NNW visible
30 Jul 3.2 20:27:38 10° S 20:31:38 71° W 20:35:36 10° NNW visible
31 Jul 2.9 20:21:53 10° S 20:25:53 84° WSW 20:29:51 10° NNW visible
01 Aug 2.8 20:16:09 10° SSE 20:20:09 82° ENE 20:24:06 10° N visible
02 Aug 2.8 20:10:27 10° SSE 20:14:24 68° ENE 20:18:19 10° N visible
05 Aug 5.8 21:30:39 10° WSW 21:31:58 11° W 21:33:16 10° WNW visible
06 Aug 5.7 21:24:10 10° SW 21:26:10 14° W 21:28:09 10° WNW visible
